Location: Kisenyi
(1.3667°N, 32.7000°E)
Time: 23:39:41
(UTC+00:00)

Daily predictions for brighter satellites

Satellite Brightness Start Highest point End
(mag) Time Altitude Azimuth Time Altitude Azimuth Time Altitude Azimuth
Meteor 2-9 Rocket 4.3 15:57:50 10° S 16:03:35 62° E 16:09:21 10° NNE
Ariane H10 3.7 16:01:41 10° WSW 16:04:04 39° S 16:07:24 10° ESE
Cosmos 1844 Rocket 3.5 16:03:51 10° SSE 16:08:32 28° ESE 16:13:11 10° NE
Cosmos 1674 Rocket 4.0 16:05:50 10° NNE 16:10:01 42° E 16:14:12 10° SSE
BLOCK DM-SL R/B 4.1 16:08:20 10° W 16:12:17 75° S 16:23:37 11° E
Shenzhou-11 Module 3.4 16:11:58 10° WSW 16:13:49 24° NW 16:15:39 10° NNE
SL-16 R/B 2.7 16:09:34 10° N 16:14:41 36° ENE 16:19:48 10° SE
CZ-2C R/B 4.0 16:11:37 10° ENE 16:15:27 19° ESE 16:19:18 10° SE
USA 215 4.3 16:10:09 10° SSE 16:16:22 47° SW 16:22:36 10° NW
Ariane H10+ 1.3 16:14:15 10° W 16:16:50 85° N 16:19:43 13° E
Cosmos 2237 Rocket 3.2 16:12:13 10° NNW 16:17:38 51° WSW 16:23:05 10° S
Atlas Centaur 2 2.4 16:10:53 10° WNW 16:18:06 90° SSW 16:23:43 10° ESE
Okean 2 Rocket 4.3 16:16:04 10° SE 16:19:31 22° E 16:22:57 10° NE
OAO 2 Rocket 3.2 16:15:12 10° NW 16:20:06 80° NE 16:25:03 10° SE
Okean-O 3.1 16:18:51 10° SE 16:22:56 37° ENE 16:26:59 10° N
Helios 1A Rocket 2.9 16:19:44 10° SSE 16:23:42 56° ENE 16:27:41 10° N
Cosmos 1939 Rocket 2.9 16:20:20 10° SSE 16:24:18 61° ENE 16:28:19 10° N
Cosmos 1816 Rocket 4.5 16:18:29 10° N 16:24:32 60° E 16:30:41 10° SSE
Cosmos 2298 Rocket 4.1 16:24:39 10° S 16:29:49 52° ESE 16:34:58 10° NNE
Tsikada Rocket 4.0 16:25:10 10° N 16:31:12 59° E 16:37:20 10° SSE
Cosmos 1300 Rocket 4.2 16:29:21 10° SSE 16:33:12 31° E 16:37:02 10° NNE
CZ-2D R/B 3.3 16:30:04 10° SSE 16:33:52 58° E 16:37:40 10° N
GPS 2-12 Rocket1 4.2 16:32:18 10° W 16:36:47 38° SSW 16:40:42 13° SE
YAOGAN 1 2.9 16:34:55 10° SSE 16:38:59 40° ENE 16:43:01 10° N
Cosmos 1378 Rocket 3.4 16:34:42 10° N 16:39:00 82° E 16:43:19 10° S
Cosmos 724 4.3 16:36:32 10° NNW 16:42:40 69° ENE 16:48:49 10° SSE
NATO 3D Rocket 3.4 16:38:48 10° WSW 16:44:21 79° NNW 16:47:22 22° ENE
GPS 2-14 Rocket1 2.4 16:40:55 10° WNW 16:44:41 83° NNE 16:46:21 32° ESE
Ariane H10-3 1.9 16:47:57 10° WNW 16:50:01 41° N 16:50:47 33° NE
SWIFT 3.3 16:48:55 10° W 16:52:50 38° SSW 16:54:55 22° SSE
Exosat Rocket 4.4 16:44:25 10° S 16:53:26 68° ESE 16:59:40 10° NNE
ARIANE 5 DEB (SYLDA) 3.6 16:55:55 10° WSW 16:56:09 12° SW 16:56:09 12° SW
Palapa 6 Rocket 3.0 16:53:36 10° WSW 16:57:17 57° NNW 16:58:42 34° NE
Cosmos 1072 Rocket 4.4 16:52:02 10° S 16:58:10 86° E 17:04:22 10° N
NOSS 3-4 (A) 3.3 16:53:17 10° SSW 16:59:17 62° ESE 17:04:02 15° NE
NOSS 3-4 (C) 3.3 16:53:24 10° SSW 16:59:24 61° ESE 17:03:58 16° NE
Cosmos 2150 Rocket 4.2 16:54:44 10° SSW 16:59:57 75° WNW 17:05:15 10° N
Cosmos 2151 Rocket 3.6 16:56:25 10° S 17:00:42 52° E 17:04:59 10° NNE
Spelda 3.1 16:50:40 10° W 17:01:36 58° S 17:02:51 39° SE
ARIANE 5 DEB (SYLDA) 4.2 17:00:08 10° W 17:00:38 16° W 17:00:38 16° W
CZ-4 R/B 1.8 16:58:03 10° S 17:02:11 66° WSW 17:06:22 10° NNW
Cosmos 2034 Rocket 4.0 16:58:05 10° S 17:04:18 57° E 17:10:30 10° NNE
Okean 2 3.3 17:06:33 10° N 17:10:41 89° E 17:14:01 15° S
Cosmos 1125 Rocket 3.4 17:05:53 10° S 17:11:10 85° E 17:16:26 10° NNE
Ariane H10 3.6 17:15:05 10° WSW 17:16:49 36° SW 17:16:49 36° SW
DMSP B5D2-2 3.9 17:13:17 10° NNE 17:18:34 85° ESE 17:23:50 10° S
ATLAS 2AS CENTAUR R/B 2.8 17:13:16 10° SSW 17:20:42 83° ESE 17:28:35 10° NNE
Ariane H10 3.0 17:09:32 10° W 17:23:46 71° N 17:25:05 55° ENE
CZ-3A R/B 2.9 17:04:37 10° WSW 17:25:09 79° SSE 17:26:06 61° E
H-2A R/B 2.0 17:28:13 64° N 17:28:13 64° N 17:32:23 10° N
Cosmos 2112 Rocket 4.2 17:23:37 10° N 17:27:51 57° NNE 17:27:51 57° NNE
Cosmos 1680 Rocket 3.5 17:27:26 10° NNW 17:32:40 80° WSW 17:33:14 70° SSW
Delta 198 4.0 17:29:37 10° WNW 17:34:49 73° WNW 17:34:49 73° WNW
Milstar 3 4.0 17:34:29 10° SSW 17:41:01 37° SSE 17:41:01 37° SSE
Cosmos 2285 Rocket 4.5 17:36:30 10° SSW 17:42:39 58° WNW 17:48:48 10° N
BLOCK DM-SL R/B 3.6 17:37:35 10° W 17:44:32 49° WSW 17:44:32 49° WSW
CZ-2C R/B 4.4 17:45:57 10° SSW 17:50:19 34° WSW 17:54:50 10° NW
CZ-2C R/B 4.4 17:50:35 10° NNW 17:55:26 31° WNW 18:00:19 10° SW
Ariane H10-3 3.4 17:28:01 10° W 17:57:28 88° S 17:57:28 88° S
ARIANE 3 DEB 4.4 17:57:23 10° W 18:00:55 57° WSW 18:00:55 57° WSW
Atlas Centaur 2 4.2 18:03:00 10° WSW 18:06:40 18° SW 18:06:40 18° SW
